Location: Slanting_Bridge
(35.6330°N, 80.9830°W)
Time: 12:19:28
(UTC-04:00)

Amateur Radio Satellites - All Passes

Search period start: 31 October 2014 11:49
Search period end: 01 November 2014 11:49
Location: Slanting_Bridge, 35.6330°N, 80.9830°W

Satellite Date Start Highest point End Downlink Frequencies (MHz)
Time Altitude Azimuth
Oscar 11 31 Oct 12:06:33 12:09:45 21° 291° (WNW) 12:12:58 145.825 FM, Beacon 2401.500 USB
SO-50 31 Oct 12:11:20 12:15:39 47° 304° (WNW) 12:20:07 436.795 FM
ISS 31 Oct 12:17:44 12:19:07 12° 336° (NNW) 12:20:30 145.800 FM
FUNcube-1 31 Oct 12:22:30 12:26:12 31° 288° (WNW) 12:29:51 145.950 - 145.970 MHz USB
KITSAT 1 31 Oct 12:36:03 12:43:34 42° 306° (NW) 12:51:08 435.175 FM
Oscar 19 31 Oct 12:44:39 12:46:03 11° 62° (ENE) 12:47:27 437.125 CW, 437.150 USB
JAS-1B 31 Oct 12:45:27 12:47:33 12° 60° (ENE) 12:49:38 435.800 - 435.900 CW/SSB
Sapphire 31 Oct 12:55:24 13:00:46 64° 247° (WSW) 13:06:07 437.095 MHz 1200 baud AX-25 AFSK
UOSAT-12 31 Oct 12:55:38 12:59:58 42° 114° (ESE) 13:04:24 437.025 FM, 437.400 FM
PCSat 31 Oct 13:17:25 13:22:21 36° 251° (WSW) 13:27:15 145.825 MHz
AO-27 31 Oct 13:21:37 13:22:11 10° 61° (ENE) 13:22:45 436.795 MHz FM
Oscar 16 31 Oct 13:28:06 13:32:38 32° 70° (ENE) 13:37:09 437.025 USB, Beacon 2401.1428
Uribyol 2 31 Oct 14:01:06 14:05:29 28° 68° (ENE) 14:09:53 436.500 FM
AO-Echo 31 Oct 14:03:29 14:07:57 35° 70° (ENE) 14:12:34 ?
ITAMSAT 1 31 Oct 14:08:52 14:13:24 31° 69° (ENE) 14:17:58 435.822 SSB
Oscar 19 31 Oct 14:19:31 14:24:40 80° 257° (WSW) 14:29:49 437.125 CW, 437.150 USB
JAS-1B 31 Oct 14:31:41 14:37:31 74° 257° (WSW) 14:43:12 435.800 - 435.900 CW/SSB
UOSAT-12 31 Oct 14:36:47 14:40:17 21° 311° (NW) 14:43:50 437.025 FM, 437.400 FM
AO-27 31 Oct 14:55:40 15:00:53 88° 256° (WSW) 15:06:09 436.795 MHz FM
Oscar 16 31 Oct 15:07:42 15:11:56 26° 264° (W) 15:16:12 437.025 USB, Beacon 2401.1428
Gurwin Techsat 1B 31 Oct 15:11:06 15:16:21 66° 74° (ENE) 15:21:37 435.225 FM
Saudisat 1A 31 Oct 15:12:54 15:17:10 46° 57° (ENE) 15:21:24 436.775 MHz
TMSAT-1 31 Oct 15:17:34 15:22:43 55° 73° (ENE) 15:27:54 436.925 FM
Uribyol 2 31 Oct 15:40:15 15:44:49 31° 263° (W) 15:49:25 436.500 FM
AO-Echo 31 Oct 15:42:52 15:46:45 23° 266° (W) 15:50:45 ?
ITAMSAT 1 31 Oct 15:48:26 15:52:49 27° 264° (W) 15:57:15 435.822 SSB
AO-7 31 Oct 15:55:50 16:03:23 42° 64° (ENE) 16:10:57 29.400 - 29.500 MHz
Uosat F 31 Oct 15:56:27 15:59:40 17° 65° (ENE) 16:02:53 435.120 FM
JAS-2 31 Oct 16:52:43 16:57:22 22° 61° (ENE) 17:02:23 435.800 - 435.900 CW/SSB, 435.910 FM
Saudisat 1A 31 Oct 16:53:47 16:56:19 15° 251° (WSW) 16:58:50 436.775 MHz
Gurwin Techsat 1B 31 Oct 16:54:26 16:56:43 13° 269° (W) 16:59:00 435.225 FM
TMSAT-1 31 Oct 16:59:52 17:02:56 15° 268° (W) 17:06:01 436.925 FM
ISS 31 Oct 17:09:51 17:12:55 33° 36° (NE) 17:15:59 145.800 FM
Uosat F 31 Oct 17:33:10 17:38:01 49° 260° (W) 17:42:54 435.120 FM
AO-7 31 Oct 17:48:29 17:56:04 40° 260° (W) 18:03:43 29.400 - 29.500 MHz
OPAL 31 Oct 18:05:50 18:10:06 29° 99° (E) 18:14:21 ?
JAS-2 31 Oct 18:35:39 18:41:40 60° 260° (W) 18:48:34 435.800 - 435.900 CW/SSB, 435.910 FM
KITSAT 1 31 Oct 18:38:33 18:42:31 14° 36° (NE) 18:46:29 435.175 FM
Hamsat 31 Oct 18:39:24 18:43:33 69° 259° (W) 18:47:44 145.90 MHz
ISS 31 Oct 18:46:55 18:49:27 20° 231° (SW) 18:51:58 145.800 FM
SO-67 31 Oct 19:22:57 19:26:08 37° 75° (ENE) 19:29:19 435.3500 MHz FM
RS-15 31 Oct 19:41:33 19:47:51 17° 100° (E) 19:54:04 29.354 - 29.394 USB, Beacon 29.352 USB
OPAL 31 Oct 19:44:43 19:48:52 28° 293° (WNW) 19:53:01 ?
STRAND 1 31 Oct 20:01:57 20:07:02 58° 101° (E) 20:12:04 ?
HO-68 31 Oct 20:04:49 20:09:36 20° 59° (ENE) 20:14:23 435.675 MHz FM
AO-40 31 Oct 20:17:05 22:21:16 20° 108° (ESE) 23:27:47 Beacon 2401.320
KITSAT 1 31 Oct 20:31:46 20:39:45 60° 58° (ENE) 20:47:41 435.175 FM
SO-50 31 Oct 20:45:20 20:50:11 67° 59° (ENE) 20:55:02 436.795 FM
Oscar 10/S400 31 Oct 20:55:09 21:32:56 59° 202° (SSW) 07:33:09 145.825 - 145.975 CW/USB, Beacon 145.810 USB
Oscar 11 31 Oct 21:23:14 21:25:57 17° 68° (ENE) 21:28:40 145.825 FM, Beacon 2401.500 USB
UOSAT-12 31 Oct 21:28:39 21:32:00 19° 48° (NE) 21:35:19 437.025 FM, 437.400 FM
FUNcube-1 31 Oct 21:42:06 21:43:35 12° 65° (ENE) 21:45:02 145.950 - 145.970 MHz USB
STRAND 1 31 Oct 21:42:48 21:45:41 15° 296° (WNW) 21:48:33 ?
RS-15 31 Oct 21:47:28 21:58:32 87° 117° (ESE) 22:09:30 29.354 - 29.394 USB, Beacon 29.352 USB
MaSat-1 31 Oct 21:47:35 21:50:43 22° 108° (ESE) 21:53:39 437.345 MHz
HO-68 31 Oct 21:49:22 21:56:31 74° 256° (WSW) 22:03:43 435.675 MHz FM
UKube-1 31 Oct 22:22:38 22:26:59 90° 251° (WSW) 22:31:23 145.840 MHz, 145.915 MHz
KITSAT 1 31 Oct 22:28:10 22:34:33 27° 255° (WSW) 22:40:56 435.175 FM
SO-50 31 Oct 22:28:14 22:30:10 12° 253° (WSW) 22:32:05 436.795 FM
ZACube-1 31 Oct 22:32:22 22:36:40 43° 74° (ENE) 22:40:54 437.345 MHz
Oscar 11 31 Oct 22:57:49 23:01:48 37° 262° (W) 23:05:48 145.825 FM, Beacon 2401.500 USB
UOSAT-12 31 Oct 23:07:53 23:12:24 48° 245° (WSW) 23:16:49 437.025 FM, 437.400 FM
FUNcube-1 31 Oct 23:14:56 23:19:25 60° 259° (W) 23:23:51 145.950 - 145.970 MHz USB
MaSat-1 31 Oct 23:22:58 23:26:00 21° 298° (WNW) 23:28:49 437.345 MHz
RS-15 01 Nov 00:03:30 00:12:20 27° 321° (NW) 00:21:14 29.354 - 29.394 USB, Beacon 29.352 USB
ZACube-1 01 Nov 00:10:37 00:13:11 15° 267° (W) 00:15:45 437.345 MHz
Oscar 16 01 Nov 01:44:08 01:46:43 14° 92° (E) 01:49:18 437.025 USB, Beacon 2401.1428
Sapphire 01 Nov 01:51:59 01:56:20 25° 107° (ESE) 02:00:42 437.095 MHz 1200 baud AX-25 AFSK
PCSat 01 Nov 02:12:42 02:17:47 44° 111° (ESE) 02:22:54 145.825 MHz
AO-Echo 01 Nov 02:14:54 02:17:54 15° 92° (E) 02:20:53 ?
JAS-1B 01 Nov 02:16:31 02:23:28 40° 99° (E) 02:31:33 435.800 - 435.900 CW/SSB
Uribyol 2 01 Nov 02:18:43 02:20:34 12° 91° (E) 02:22:24 436.500 FM
ITAMSAT 1 01 Nov 02:26:11 02:28:44 14° 92° (E) 02:31:16 435.822 SSB
RS-15 01 Nov 02:26:35 02:30:28 12° 357° (N) 02:34:22 29.354 - 29.394 USB, Beacon 29.352 USB
Oscar 19 01 Nov 02:34:15 02:39:11 46° 100° (E) 02:44:05 437.125 CW, 437.150 USB
PANSAT 01 Nov 03:08:57 03:09:34 10° 158° (SSE) 03:10:12 not established
AO-27 01 Nov 03:11:59 03:16:56 42° 99° (E) 03:21:50 436.795 MHz FM
Oscar 16 01 Nov 03:21:22 03:26:24 58° 287° (WNW) 03:31:24 437.025 USB, Beacon 2401.1428
Gurwin Techsat 1B 01 Nov 03:30:42 03:35:29 33° 97° (E) 03:40:14 435.225 FM
Sapphire 01 Nov 03:34:30 03:39:30 38° 303° (WNW) 03:44:33 437.095 MHz 1200 baud AX-25 AFSK
TMSAT-1 01 Nov 03:36:54 03:41:24 28° 96° (E) 03:45:53 436.925 FM
AO-Echo 01 Nov 03:51:46 03:56:59 57° 287° (WNW) 04:02:06 ?
Uribyol 2 01 Nov 03:55:17 04:00:27 68° 286° (WNW) 04:05:34 436.500 FM
PCSat 01 Nov 03:57:03 04:01:21 24° 307° (NW) 04:05:42 145.825 MHz
AO-7 01 Nov 04:03:12 04:07:00 14° 91° (E) 04:10:48 29.400 - 29.500 MHz
ITAMSAT 1 01 Nov 04:03:26 04:08:35 60° 287° (WNW) 04:13:40 435.822 SSB
JAS-1B 01 Nov 04:07:13 04:13:54 40° 290° (WNW) 04:21:44 435.800 - 435.900 CW/SSB
Oscar 19 01 Nov 04:14:40 04:18:08 19° 294° (WNW) 04:21:35 437.125 CW, 437.150 USB
RS-15 01 Nov 04:40:47 04:49:08 23° 34° (NE) 04:57:40 29.354 - 29.394 USB, Beacon 29.352 USB
PANSAT 01 Nov 04:46:02 04:49:07 23° 170° (S) 04:52:11 not established
AO-27 01 Nov 04:52:17 04:56:06 21° 294° (WNW) 04:59:54 436.795 MHz FM
Gurwin Techsat 1B 01 Nov 05:10:54 05:15:16 27° 292° (WNW) 05:19:37 435.225 FM
TMSAT-1 01 Nov 05:16:38 05:21:15 31° 291° (WNW) 05:25:52 436.925 FM
Saudisat 1A 01 Nov 05:17:08 05:20:37 23° 111° (ESE) 05:24:07 436.775 MHz
OPAL 01 Nov 05:17:46 05:22:29 39° 69° (ENE) 05:27:09 ?
Uosat F 01 Nov 05:43:39 05:48:41 65° 102° (ESE) 05:53:40 435.120 FM
JAS-2 01 Nov 05:48:31 05:55:04 28° 93° (E) 06:01:19 435.800 - 435.900 CW/SSB, 435.910 FM
AO-7 01 Nov 05:52:21 06:00:44 84° 107° (ESE) 06:09:06 29.400 - 29.500 MHz
PANSAT 01 Nov 06:25:31 06:28:49 27° 183° (S) 06:32:06 not established
Hamsat 01 Nov 06:28:18 06:31:48 25° 96° (E) 06:35:18 145.90 MHz
RS-15 01 Nov 06:52:21 07:03:37 77° 59° (ENE) 07:15:23 29.354 - 29.394 USB, Beacon 29.352 USB
Saudisat 1A 01 Nov 06:56:09 07:00:01 30° 307° (NW) 07:03:54 436.775 MHz
OPAL 01 Nov 06:57:34 07:01:25 21° 263° (W) 07:05:15 ?
STRAND 1 01 Nov 07:14:52 07:19:55 62° 74° (ENE) 07:25:00 ?
Uosat F 01 Nov 07:24:32 07:26:52 13° 297° (WNW) 07:29:11 435.120 FM
JAS-2 01 Nov 07:32:40 07:40:18 55° 289° (WNW) 07:47:35 435.800 - 435.900 CW/SSB, 435.910 FM
MaSat-1 01 Nov 07:35:31 07:36:12 11° 58° (ENE) 07:36:53 437.345 MHz
AO-7 01 Nov 07:46:57 07:52:30 20° 305° (NW) 07:58:05 29.400 - 29.500 MHz
Hamsat 01 Nov 08:04:17 08:07:36 23° 290° (WNW) 08:10:56 145.90 MHz
PANSAT 01 Nov 08:05:53 08:08:28 17° 195° (SSW) 08:11:02 not established
SO-67 01 Nov 08:21:25 08:24:51 70° 101° (E) 08:28:16 435.3500 MHz FM
STRAND 1 01 Nov 08:57:10 08:59:28 13° 268° (W) 09:01:46 ?
RS-15 01 Nov 09:06:21 09:14:53 26° 257° (WSW) 09:23:44 29.354 - 29.394 USB, Beacon 29.352 USB
MaSat-1 01 Nov 09:10:29 09:11:24 12° 254° (WSW) 09:12:19 437.345 MHz
HO-68 01 Nov 09:21:19 09:27:01 25° 95° (E) 09:32:40 435.675 MHz FM
ISS 01 Nov 09:49:35 09:52:48 53° 135° (SE) 09:56:03 145.800 FM
UKube-1 01 Nov 10:14:41 10:17:49 19° 95° (E) 10:20:55 145.840 MHz, 145.915 MHz
Sapphire 01 Nov 10:43:41 10:46:11 13° 46° (NE) 10:48:40 437.095 MHz 1200 baud AX-25 AFSK
Oscar 11 01 Nov 10:47:59 10:52:09 47° 99° (E) 10:56:18 145.825 FM, Beacon 2401.500 USB
KITSAT 1 01 Nov 10:56:15 11:04:09 63° 113° (ESE) 11:12:05 435.175 FM
SO-50 01 Nov 10:57:38 11:01:49 41° 114° (ESE) 11:06:08 436.795 FM
PCSat 01 Nov 11:04:08 11:08:09 21° 51° (NE) 11:12:09 145.825 MHz
FUNcube-1 01 Nov 11:07:24 11:11:05 30° 97° (E) 11:14:43 145.950 - 145.970 MHz USB
HO-68 01 Nov 11:08:01 11:14:58 54° 291° (WNW) 11:21:54 435.675 MHz FM
ISS 01 Nov 11:27:24 11:29:42 17° 331° (NNW) 11:32:01 145.800 FM
